Regional Weather Roundup
Issued by NWS

Home | Current Version | Previous Version | Graphics & Text | Print | Product List | Glossary On
Versions: 1 2 3 4 5 6 7 8 9 10 11 12 13 14 15 16 17 18 19 20 21 22 23 24 25 26 27 28 29 30 31 32 33 34 35 36 37 38 39 40 41 42 43 44 45 46 47 48 49 50
000
ASUS43 KMKX 242020
RWRWI

WISCONSIN REGIONAL WEATHER ROUNDUP
NATIONAL WEATHER SERVICE MILWAUKEE/SULLIVAN WI
300 PM CDT THU JUL 24 2014

NOTE: "FAIR" INDICATES FEW OR NO CLOUDS BELOW 12,000 FEET WITH NO
SIGNIFICANT WEATHER AND/OR OBSTRUCTIONS TO VISIBILITY.

WIZ001-002-006>008-014>016-023>028-242100-
NORTHWEST WISCONSIN

CITY           SKY/WX    TMP DP  RH WIND       PRES   REMARKS
SUPERIOR ARPT  PTSUNNY   74  62  64 NE7       30.03F
ASHLAND        MOSUNNY   73  56  54 S5        30.06F
HAYWARD        PTSUNNY   76  50  40 S9        30.07F
SIREN          PTSUNNY   78  51  38 SW10      30.06S
RICE LAKE      MOSUNNY   77  51  40 SW9       30.09R
LADYSMITH      MOSUNNY   77  53  43 SW6       30.09F
EAU CLAIRE     PTSUNNY   79  51  37 SW10      30.05F
MENOMONIE      PTCLDY    80  50  34 SW3       30.07R
NEW RICHMOND   MOSUNNY   78  54  43 SW9       30.07R
OSCEOLA        MOSUNNY   79  55  42 S10       30.10R HX  80
$$

WIZ003>005-009-010-017-018-242100-
NORTH CENTRAL WISCONSIN

CITY           SKY/WX    TMP DP  RH WIND       PRES   REMARKS
WOODRUFF       MOSUNNY   80  51  36 SW3       30.08F
RHINELANDER    PTSUNNY   75  49  39 SW8       30.09F
EAGLE RIVER    PTSUNNY   73  45  37 W3G21     30.08F
LAND O LAKES   SUNNY     74  46  36 SW6       30.09F
PHILLIPS       CLOUDY    73  51  46 SW6       30.08S
TOMAHAWK       SUNNY     73  52  48 CALM      30.09F
MEDFORD        MOSUNNY   71  52  51 NW3       30.08F
MERRILL        MOSUNNY   75  52  44 SW7       30.08F
$$

WIZ029-030-035-036-043>047-242100-
CENTRAL WISCONSIN

CITY           SKY/WX    TMP DP  RH WIND       PRES   REMARKS
WAUSAU         MOSUNNY   75  48  38 W9        30.07F
MOSINEE        PTSUNNY   77  48  36 W9G16     30.10F
MARSHFIELD     MOSUNNY   77  52  41 MISG      30.08F
STEVENS POINT  MOSUNNY   74  47  37 W5        30.08F
WAUPACA        MOSUNNY   79  49  34 S7        30.08F
WAUTOMA        MOSUNNY   78  50  37 S8        30.09F
WISC RAPIDS    SUNNY     78  49  35 VRB5      30.09F
CAMP DOUGLAS   PTSUNNY   77  55  47 VRB6      30.08F
$$

WIZ011>013-019>022-031-037>040-048>050-242100-
NORTHEAST WISCONSIN

CITY           SKY/WX    TMP DP  RH WIND       PRES   REMARKS
ANTIGO         MOSUNNY   72  51  48 SW6       30.09F
STURGEON BAY   MOSUNNY   70  48  46 S9        30.09F
GREEN BAY      MOSUNNY   76  49  38 VRB3      30.09F
MANITOWOC      SUNNY     68  47  46 SE12      30.11F
APPLETON       PTSUNNY   73  48  40 VRB6      30.11F
CLINTONVILLE   MOSUNNY   75  46  35 S7        30.07F
OSHKOSH        PTSUNNY   73  53  49 SE10      30.09F
$$

WIZ032>034-041-042-053>061-242100-
SOUTHWEST WISCONSIN

CITY           SKY/WX    TMP DP  RH WIND       PRES   REMARKS
LA CROSSE      MOSUNNY   81  53  37 SW8       30.05F HX  80
SPARTA         PTSUNNY   77  47  35 E3        30.07F
VIROQUA        FAIR      77  55  45 SE3       30.08F
BOSCOBEL       MOSUNNY   79  53  40 VRB5      30.07F
PRAIRIE DU CHI MOSUNNY   79  52  38 S9        30.06F
PLATTEVILLE    FAIR      76  54  44 S7        30.10F
$$

WIZ056-057-062-063-064-067-068-242100-
SOUTH CENTRAL WISCONSIN

CITY           SKY/WX    TMP DP  RH WIND       PRES   REMARKS
BARABOO/DELLS  SUNNY     79  47  32 S3        30.09F
LONE ROCK      MOSUNNY   82  55  39 VRB3      30.07F HX  81
WATERTOWN      PTSUNNY   73  53  48 S3        30.10F
MADISON        PTSUNNY   78  52  40 VRB5      30.10F
MIDDLETON      MOCLDY    79  50  36 SW6       30.10F
MONROE         PTSUNNY   73  52  46 CALM      30.10F
JANESVILLE     PTSUNNY   75  48  38 E6        30.11F
$$

WIZ051-052-058>065-066-070>072-242100-
SOUTHEAST WISCONSIN

CITY           SKY/WX    TMP DP  RH WIND       PRES   REMARKS
MILWAUKEE      MOSUNNY   71  48  43 SE9       30.13F
WAUKESHA       MOSUNNY   72  46  40 CALM      30.13F
MILWAUKEE/TIMM SUNNY     72  41  33 E9        30.13
RACINE         SUNNY     69  48  47 E7        30.15F
BURLINGTON     SUNNY     72  49  45 NE3       30.12F
KENOSHA        SUNNY     71  45  39 E7        30.13F
FOND DU LAC    PTSUNNY   76  51  41 S8        30.10F
SHEBOYGAN      SUNNY     71  47  42 SE8       30.12F
WEST BEND      MOSUNNY   72  46  40 SE6       30.11F
JUNEAU         MOSUNNY   73  44  34 CALM      30.11F
$$

LSZ147-162-242100-
LAKE SUPERIOR

STATION/POSITION TIME  TEMP    WIND        PRES    WAVE
                       AIR SEA DIR/SP/G            HT/PER
                 (UTC) (F)     (DEG/KT/KT) (MB)    (FT/S)
$$

LMZ867-665-643>646-242100-
LAKE MICHIGAN

STATION/POSITION TIME  TEMP    WIND        PRES    WAVE
                       AIR SEA DIR/SP/G            HT/PER
                 (UTC) (F)     (DEG/KT/KT) (MB)    (FT/S)
$$

TC  - TEMPERATURE IN CELSIUS
VSB - VISIBILITY IN STATUTE MILES
WCI - WIND CHILL INDEX
HX  - HEAT INDEX



USA.gov is the U.S. government's official web portal to all federal, state and local government web resources and services.